Location: Campillo
(40.8621°N, 4.2488°W)
Time: 03:21:47
(UTC+00:00)

X-37B - Pass Details

Date: 08 August 2021
Orbit: 381 x 393 km, 45.0° (Epoch: 29 August)

Event Time Altitude Azimuth Distance (km) Brightness Sun altitude
Exits shadow 04:42:00 - 291° (WNW) 2,153 4.0 -7.4°
Reaches altitude 10° 04:43:52 10° 296° (WNW) 1,397 3.1 -7.0°
Maximum altitude 04:46:55 48° 13° (NNE) 509 1.5 -6.5°
Drops below altitude 10° 04:49:59 10° 89° (E) 1,396 4.6 -6.0°
Sets 04:52:05 0° 95° (E) 2,248 5.6 -5.7°
